Regional Weather Roundup
Issued by NWS

Home | Current Version | Previous Version | Text Only | Print | Product List | Glossary On
Versions: 1 2 3 4 5 6 7 8 9 10 11 12 13 14 15 16 17 18 19 20 21 22 23 24 25 26 27 28 29 30 31 32 33 34 35 36 37 38 39 40 41 42 43 44 45 46 47 48 49 50
319
ASUS44 KLIX 302010
RWRLA
LOUISIANA WEATHER ROUNDUP
NATIONAL WEATHER SERVICE NEW ORLEANS LA
200 PM CST FRI JAN 30 2015

NOTE: "FAIR" INDICATES FEW OR NO CLOUDS BELOW 12,000 FEET WITH NO
      SIGNIFICANT WEATHER AND/OR OBSTRUCTIONS TO VISIBILITY.
      SKY/WX - SKY CONDITION AND SIGNIFICANT WEATHER.
      TMP - AIR TEMPERATURE.    DP   - DEWPOINT TEMPERATURE.
      RH  - RELATIVE HUMIDITY.  PRES - PRESSURE.
      HX  - HEAT INDEX.         WCI  - WIND CHILL INDEX.

*  THESE STATIONS ARE NOT NWS OR FAA STATIONS AND ARE NOT UNDER
   NWS QUALITY CONTROL.

LAZ040-048-061>063-065-066-069-302100-
SOUTHEAST LOUISIANA

CITY           SKY/WX    TMP DP  RH WIND       PRES   REMARKS
N.O. AUDUBON     N/A     59  40  50 MISG        N/A
N.O. INTL ARPT PTSUNNY   57  37  47 N10       30.34F
N.O. LAKEFRONT PTSUNNY   59  37  44 N7        30.34F
N.O. DOWNTOWN* NOT AVBL
SLIDELL        PTSUNNY   60  30  32 N7        30.32F
BATON ROUGE    MOSUNNY   61  30  31 N10       30.33F
BOOTHVILLE     CLOUDY    53  41  63 N9        30.32F
BELLE CHASSE   CLOUDY    59  35  40 N9        30.32F
BOGALUSA*        N/A     58  31  36 N12       30.34F
GALLIANO*      MOCLDY    59  39  47 MISG      30.33S
NEW ROADS*     FAIR      59  31  34 N8        30.35F
GONZALES*      FAIR      60  33  37 NE5       30.33F
HAMMOND*       PTSUNNY   61  30  31 N7        30.35F
HOUMA*         NOT AVBL
PORT FOURCHON* CLEAR     55  43  62 NE15G21   30.35S

$$

LAZ041-044-053-054-302100-
SOUTHWEST LOUISIANA

CITY           SKY/WX    TMP DP  RH WIND       PRES   REMARKS
LAKE CHARLES   SUNNY     60  34  37 NE9       30.34F
LAFAYETTE      SUNNY     59  35  40 NE9       30.34F
PATTERSON      MOSUNNY   57  37  47 NE12      30.34F
SALT POINT       N/A     59  35  40 VRB7      30.31F
NEW IBERIA     MOSUNNY   60  35  39 NE9       30.34F
CHENAULT AIRPK SUNNY     57  34  41 NE7       30.35

$$

LAZ027-028-302100-
CENTRAL LOUISIANA

CITY           SKY/WX    TMP DP  RH WIND       PRES   REMARKS
FORT POLK      PTSUNNY   56  31  39 N10       30.35F
ALEXANDRIA INT PTSUNNY   56  31  38 VRB5      30.36F
ALEXANDRIA     PTSUNNY   56  31  38 E8        30.37F

$$

LAZ001-002-302100-
NORTHWEST LOUISIANA

CITY           SKY/WX    TMP DP  RH WIND       PRES   REMARKS
SHREVEPORT     SUNNY     56  29  35 VRB6      30.39F
BARKSDALE AFB  SUNNY     56  29  35 VRB3      30.40F
DTN SHREVEPORT SUNNY     55  29  36 VRB7      30.40F

$$

LAZ014-016-302100-
NORTHEAST LOUISIANA

CITY           SKY/WX    TMP DP  RH WIND       PRES   REMARKS
MONROE         SUNNY     53  32  44 E12       30.42F
TALLULAH       MOSUNNY   56  31  38 N10       30.40F

$$




USA.gov is the U.S. government's official web portal to all federal, state and local government web resources and services.